[[{"header":{"parameterUnit":"m.s-1","parameterCategory":1,"la1":30.2991,"la2":30.254,"lo1":-89.0895,"lo2":-89.0444,"dy":0.0017,"dx":0.0017,"nx":28,"ny":28,"refTime":"2025-07-07T21:00:00:Z","depth":0,"parameterNumber":2,"parameterNumberName":"U-component_of_WINDS"},"data":[0,0,0,0,0,0,0,0,0,0,0,0,0,0,0,0,0,0,0,0,0,0,0,0,0,0,0,0,0,0,0,0,0,0,0,0,0,0,0,0,0,0,0,0,0,0,0,0,0,0,0,0,0,0,0,0,0,0,4.3072,4.3074,0,4.3256,4.3258,4.326,4.3211,4.3207,4.3203,4.32,4.3393,4.3401,4.3409,0,0,0,0,0,0,0,0,0,0,0,0,0,4.268,4.2688,4.3072,4.3074,4.3077,4.3256,4.3258,4.3261,4.3211,4.3207,4.3202,4.3198,4.339,4.34,4.341,0,0,0,0,0,0,0,0,0,0,0,0,0,4.2856,4.269,4.3072,4.3073,4.3075,4.3255,4.3259,4.3262,4.3212,4.3207,4.3201,4.3196,4.3386,4.3399,4.3412,4.3603,0,0,4.3451,4.3457,0,0,0,0,0,0,0,0,4.2846,4.2871,4.3071,4.3073,4.3076,4.3205,4.3191,4.3376,4.3214,4.316,4.3199,4.3193,4.3335,4.3352,4.3399,4.3612,4.362,4.3452,4.346,4.3466,4.3469,0,0,0,0,0,0,0,4.2834,4.2862,4.3145,4.3074,4.3077,4.3066,4.3085,4.3226,4.3277,4.3164,4.3161,4.3184,4.3335,4.3386,4.3403,4.3623,4.3452,4.3463,4.3471,4.3476,4.4001,4.4007,0,0,0,0,0,0,4.2819,4.2853,4.3139,4.315,4.2945,4.3077,4.3098,4.3169,4.3275,4.3286,4.3188,4.3181,4.3367,4.3388,4.3409,4.3639,4.3465,4.3478,4.3485,4.3995,4.4003,4.401,0,0,0,0,0,0,4.2811,4.2845,4.3132,4.3001,4.3036,4.309,4.317,4.3176,4.3226,4.3293,4.3302,4.3231,4.3363,4.3391,4.3555,4.3645,4.3483,4.3495,4.3988,4.3998,4.4006,4.4102,0,0,0,0,0,0,4.28,4.2843,4.2915,4.3003,4.3043,4.3273,4.3175,4.3183,4.3248,4.324,4.3335,4.3346,4.3361,4.3536,4.3567,4.366,4.3505,4.398,4.3992,4.4003,4.4091,4.4113,4.4132,0,0,0,0,0,4.2786,4.2936,4.2919,4.2954,4.3135,4.3279,4.3302,4.3316,4.3256,4.333,4.3372,4.3343,4.363,4.3553,4.3588,4.3686,4.3974,4.3989,4.4002,4.4081,4.4109,4.4132,0,0,0,0,0,0,4.286,4.2948,4.293,4.3112,4.3188,4.327,4.3363,4.3344,4.344,4.3428,4.3442,4.3464,4.3631,4.3675,4.3587,4.3876,4.3794,4.3816,4.3842,4.3868,4.3889,4.3875,4.3516,0,0,0,0,0,4.2897,4.3005,4.3076,4.323,4.3269,4.331,4.3373,4.3376,4.3456,4.3488,4.3543,4.3623,4.3731,4.3802,4.3905,4.4096,4.4116,4.4181,4.4202,4.4219,4.4238,4.4341,4.4371,4.4055,4.4055,4.4055,0,0,4.2975,4.3037,4.3104,4.3246,4.3306,4.3418,4.3337,4.346,4.3543,4.3508,4.3664,4.3707,4.3797,4.3975,4.4056,4.4017,4.4329,4.4237,4.425,4.4259,4.4359,4.4389,4.4415,4.4065,4.4063,4.4062,0,0,4.3175,4.3233,4.3367,4.3427,4.3517,4.3543,4.3575,4.366,4.3686,4.3843,4.3819,4.3919,4.4105,4.417,4.4227,4.445,4.4427,4.4484,4.4593,4.4694,4.4718,4.474,4.482,4.4848,4.4502,4.4502,4.4503,0,4.3262,4.3429,4.3438,4.3563,4.3626,4.3597,4.3733,4.3792,4.3912,4.3956,4.391,4.4142,4.4201,4.4393,4.4447,4.4495,4.4532,4.4473,4.4714,4.4736,4.4757,4.4833,4.4862,4.4509,4.4508,4.4507,4.4507,0,4.3531,4.3647,4.3744,4.3859,4.3933,4.4063,4.4093,4.4167,4.4164,4.4195,4.4355,4.4424,4.454,4.4586,4.4586,4.4779,4.4751,4.471,4.4627,4.4793,4.4864,4.4894,4.4518,4.4515,4.4514,4.4512,0,0,4.3783,4.39,4.3935,4.3986,4.4083,4.4174,4.4302,4.4414,4.4477,4.4561,4.4669,4.4826,4.4788,4.4853,4.4859,4.4948,4.5119,4.4895,4.4897,4.4934,4.5336,4.5366,4.54,4.5104,4.5109,4.5114,4.5328,0,4.3991,4.4216,4.4227,4.4432,4.4539,4.4512,4.4624,4.4696,4.4728,4.4824,4.486,4.4971,4.4912,4.4951,4.5038,4.508,4.52,4.5065,4.5205,4.521,4.5183,4.5437,4.547,4.5669,4.5356,4.5361,4.5364,0,4.4265,4.4354,4.4569,4.4648,4.4694,4.4794,4.4897,4.4989,4.507,4.5087,4.5159,4.5152,4.5284,4.5197,4.5379,4.5287,4.5345,4.5374,4.5382,4.5396,4.5297,4.5457,4.5733,4.5762,4.5408,4.5405,4.5402,0,4.4427,4.4601,4.4752,4.4796,4.4894,4.4964,4.5009,4.5084,4.515,4.524,4.5283,4.5389,4.5447,4.5529,4.555,4.5484,4.5732,4.5647,4.5751,4.575,4.5805,4.5801,4.6093,4.5842,4.5842,4.5841,4.5841,0,4.4658,4.479,4.4826,4.4918,4.5066,4.5078,4.5224,4.5263,4.533,4.543,4.5414,4.5509,4.5532,4.5631,4.565,4.5797,4.5824,4.5842,4.5845,4.5844,4.5841,4.5882,4.5869,4.5849,4.5848,4.5846,4.5845,0,4.4865,4.4894,4.5056,4.5133,4.5156,4.5261,4.5328,4.5418,4.5447,4.5574,4.5605,4.5651,4.5767,4.5797,4.5937,4.5948,4.6123,4.6113,4.6095,4.6095,4.6197,4.6187,4.6526,4.657,4.6291,4.6293,4.6295,0,4.501,4.5111,4.5199,4.5264,4.531,4.5416,4.5483,4.5499,4.5569,4.5668,4.5745,4.5859,4.5951,4.6138,4.6185,4.6291,4.6284,4.6395,4.63,4.6294,4.6285,4.6278,4.6288,4.6413,4.6416,4.6418,4.642,0,4.5266,4.5275,4.537,4.5472,4.5551,4.5632,4.571,4.5764,4.5791,4.5871,4.5988,4.6059,4.62,4.6313,4.642,4.6466,4.6449,4.645,4.6479,4.6479,4.6464,4.6473,4.6144,4.6442,4.644,4.6438,4.6437,4.6436,4.5446,4.5534,4.5609,4.5716,4.5776,4.5848,4.5935,4.5974,4.6072,4.6187,4.619,4.6318,4.6396,4.6537,4.6589,4.669,4.6656,4.6699,4.671,4.6721,4.6729,4.6447,4.6709,4.6709,4.6708,4.6708,4.6707,0,4.5701,4.5747,4.5845,4.5953,4.6037,4.6011,4.6095,4.6168,4.6279,4.6352,4.6442,4.6577,4.6686,4.6741,4.685,4.692,4.6914,4.6948,4.6943,4.6954,4.6753,4.6716,4.695,4.695,4.695,4.695,4.695,4.695,4.5843,4.5989,4.6007,4.6183,4.6229,4.6352,4.6402,4.6469,4.6527,4.6677,4.6767,4.6801,4.6868,4.698,4.7079,4.7093,4.7134,4.7171,4.7181,4.6993,4.6968,4.6944,4.691,4.718,4.718,4.7372,4.7374,4.7376]},{"header":{"parameterUnit":"m.s-1","parameterCategory":1,"la1":30.2991,"la2":30.254,"lo1":-89.0895,"lo2":-89.0444,"dy":0.0017,"dx":0.0017,"nx":28,"ny":28,"refTime":"2025-07-07T21:00:00:Z","depth":0,"parameterNumber":3,"parameterNumberName":"V-component_of_WINDS"},"data":[0,0,0,0,0,0,0,0,0,0,0,0,0,0,0,0,0,0,0,0,0,0,0,0,0,0,0,0,0,0,0,0,0,0,0,0,0,0,0,0,0,0,0,0,0,0,0,0,0,0,0,0,0,0,0,0,0,0,-0.1641,-0.164,0,-0.1527,-0.1526,-0.1525,-0.1465,-0.1465,-0.1465,-0.1465,-0.1346,-0.1343,-0.134,0,0,0,0,0,0,0,0,0,0,0,0,0,-0.1805,-0.1802,-0.1641,-0.164,-0.1639,-0.1527,-0.1526,-0.1524,-0.1465,-0.1465,-0.1465,-0.1465,-0.1347,-0.1343,-0.134,0,0,0,0,0,0,0,0,0,0,0,0,0,-0.1717,-0.1802,-0.1642,-0.1596,-0.1591,-0.1528,-0.1526,-0.1524,-0.1465,-0.1465,-0.1465,-0.1465,-0.1348,-0.1344,-0.1339,-0.1312,0,0,-0.1325,-0.1323,0,0,0,0,0,0,0,0,-0.1722,-0.1711,-0.1604,-0.1599,-0.1593,-0.1511,-0.154,-0.1453,-0.1465,-0.1513,-0.1465,-0.1465,-0.1401,-0.1392,-0.137,-0.1307,-0.1302,-0.1324,-0.1322,-0.132,-0.1318,0,0,0,0,0,0,0,-0.1728,-0.1715,-0.1596,-0.1603,-0.1596,-0.158,-0.1567,-0.1523,-0.1459,-0.1509,-0.1504,-0.1492,-0.1398,-0.1375,-0.1367,-0.13,-0.1325,-0.132,-0.1318,-0.1316,-0.1207,-0.1207,0,0,0,0,0,0,-0.1742,-0.1721,-0.16,-0.1593,-0.1659,-0.1577,-0.1563,-0.1537,-0.1459,-0.1447,-0.1492,-0.1489,-0.1383,-0.1373,-0.1363,-0.1325,-0.132,-0.1315,-0.1313,-0.1207,-0.1207,-0.1207,0,0,0,0,0,0,-0.1746,-0.1732,-0.1604,-0.1655,-0.1638,-0.1574,-0.1546,-0.1535,-0.1512,-0.1446,-0.1434,-0.1481,-0.1383,-0.1369,-0.1325,-0.132,-0.1313,-0.1309,-0.1207,-0.1207,-0.1207,-0.1251,0,0,0,0,0,0,-0.1751,-0.1733,-0.1723,-0.1656,-0.1636,-0.157,-0.1545,-0.1533,-0.1505,-0.15,-0.1433,-0.1421,-0.1382,-0.1332,-0.1321,-0.1314,-0.1305,-0.1207,-0.1207,-0.1207,-0.1249,-0.1252,-0.1254,0,0,0,0,0,-0.1757,-0.174,-0.1723,-0.1709,-0.1622,-0.157,-0.1558,-0.1513,-0.1505,-0.1493,-0.1451,-0.1424,-0.1323,-0.1328,-0.1314,-0.1306,-0.1207,-0.1207,-0.1207,-0.1248,-0.1251,-0.1254,0,0,0,0,0,0,-0.1808,-0.1731,-0.1711,-0.1672,-0.1628,-0.156,-0.1544,-0.1518,-0.1475,-0.1472,-0.1418,-0.1403,-0.1364,-0.133,-0.1338,-0.1275,-0.1262,-0.1259,-0.1298,-0.1301,-0.1303,-0.1312,-0.1301,0,0,0,0,0,-0.1816,-0.178,-0.1714,-0.1686,-0.1665,-0.1609,-0.1584,-0.1553,-0.1505,-0.1486,-0.144,-0.1393,-0.1351,-0.1324,-0.1282,-0.1244,-0.1228,-0.1232,-0.1234,-0.1237,-0.1234,-0.1211,-0.1211,-0.1206,-0.1206,-0.1206,0,0,-0.1829,-0.1782,-0.1764,-0.1695,-0.1657,-0.1621,-0.1593,-0.1556,-0.1528,-0.148,-0.1435,-0.14,-0.1344,-0.1303,-0.1283,-0.1274,-0.1232,-0.1236,-0.1239,-0.1235,-0.121,-0.1211,-0.1212,-0.1206,-0.1206,-0.1206,0,0,-0.1836,-0.1798,-0.177,-0.1732,-0.1675,-0.1638,-0.1631,-0.1567,-0.1541,-0.1496,-0.1458,-0.1424,-0.1353,-0.1314,-0.1285,-0.1276,-0.1249,-0.1264,-0.1277,-0.1254,-0.1255,-0.1255,-0.125,-0.125,-0.1262,-0.1262,-0.1262,0,-0.186,-0.1805,-0.1758,-0.1723,-0.1694,-0.1649,-0.1619,-0.1585,-0.1517,-0.1497,-0.1489,-0.1397,-0.1357,-0.1305,-0.1303,-0.1281,-0.1271,-0.1271,-0.1258,-0.1258,-0.1257,-0.1253,-0.1251,-0.1264,-0.1264,-0.1264,-0.1263,0,-0.1837,-0.1799,-0.1783,-0.1719,-0.1687,-0.1655,-0.1603,-0.1576,-0.1548,-0.1511,-0.1465,-0.1414,-0.136,-0.1346,-0.1318,-0.129,-0.1286,-0.1269,-0.1255,-0.1261,-0.1255,-0.1253,-0.1267,-0.1266,-0.1266,-0.1265,0,0,-0.1873,-0.1783,-0.1778,-0.1748,-0.1681,-0.165,-0.1616,-0.1563,-0.1541,-0.1496,-0.1464,-0.1405,-0.1388,-0.1355,-0.1322,-0.1303,-0.1297,-0.1287,-0.1285,-0.129,-0.1262,-0.1275,-0.1274,-0.1279,-0.1279,-0.1278,-0.1266,0,-0.1869,-0.1806,-0.1762,-0.1715,-0.1679,-0.1635,-0.1604,-0.156,-0.1524,-0.1487,-0.1447,-0.1406,-0.1387,-0.1367,-0.1346,-0.1303,-0.1291,-0.1303,-0.1248,-0.1247,-0.1263,-0.1271,-0.1285,-0.1276,-0.1264,-0.1264,-0.1263,0,-0.1856,-0.1813,-0.1762,-0.1699,-0.1682,-0.1655,-0.1603,-0.1569,-0.1517,-0.1492,-0.1456,-0.1422,-0.1382,-0.1372,-0.1315,-0.1324,-0.1299,-0.1274,-0.1273,-0.1265,-0.1255,-0.1263,-0.1272,-0.127,-0.126,-0.126,-0.126,0,-0.1886,-0.1815,-0.1775,-0.175,-0.1676,-0.1658,-0.1626,-0.1574,-0.1545,-0.1499,-0.1479,-0.143,-0.1402,-0.1364,-0.1317,-0.1314,-0.1265,-0.1251,-0.1242,-0.1243,-0.1233,-0.1234,-0.1237,-0.1219,-0.1219,-0.1219,-0.1219,0,-0.1886,-0.1857,-0.1787,-0.1763,-0.1728,-0.1678,-0.1644,-0.1608,-0.1562,-0.1529,-0.1488,-0.1458,-0.1398,-0.136,-0.1323,-0.1281,-0.1269,-0.1247,-0.1238,-0.1251,-0.1253,-0.1233,-0.1232,-0.1218,-0.1218,-0.1218,-0.1218,0,-0.1914,-0.1866,-0.182,-0.1753,-0.1735,-0.1712,-0.1654,-0.1628,-0.159,-0.1549,-0.1536,-0.1476,-0.1429,-0.1379,-0.1315,-0.129,-0.1249,-0.1236,-0.1267,-0.1262,-0.1255,-0.1256,-0.1245,-0.124,-0.1226,-0.1226,-0.1226,0,-0.1917,-0.1893,-0.1823,-0.1799,-0.1768,-0.1728,-0.1698,-0.1648,-0.1618,-0.1557,-0.1538,-0.1488,-0.1445,-0.1371,-0.1322,-0.1272,-0.1257,-0.1256,-0.1249,-0.1262,-0.1255,-0.1257,-0.1254,-0.1258,-0.1259,-0.1259,-0.1259,0,-0.1926,-0.1904,-0.1863,-0.1813,-0.1779,-0.1737,-0.1694,-0.1676,-0.1616,-0.1585,-0.1537,-0.1504,-0.1438,-0.1388,-0.1332,-0.1298,-0.1268,-0.1262,-0.1257,-0.127,-0.1288,-0.1277,-0.1273,-0.1262,-0.1262,-0.1262,-0.1262,-0.1262,-0.194,-0.1917,-0.1864,-0.182,-0.1782,-0.1742,-0.1714,-0.1673,-0.1632,-0.1575,-0.1547,-0.1499,-0.1446,-0.1368,-0.1334,-0.1295,-0.1286,-0.1279,-0.1277,-0.1276,-0.1279,-0.1295,-0.1284,-0.1284,-0.1284,-0.1284,-0.1284,0,-0.1947,-0.1911,-0.187,-0.1811,-0.1776,-0.1752,-0.1703,-0.1674,-0.1632,-0.1586,-0.1545,-0.1489,-0.144,-0.1386,-0.1334,-0.1313,-0.1298,-0.1301,-0.1301,-0.1294,-0.129,-0.1299,-0.1314,-0.1314,-0.1314,-0.1314,-0.1314,-0.1314,-0.1946,-0.1905,-0.1876,-0.1815,-0.1778,-0.1731,-0.1705,-0.1668,-0.163,-0.157,-0.1529,-0.1495,-0.1445,-0.1389,-0.1343,-0.1328,-0.131,-0.1317,-0.1299,-0.1296,-0.1294,-0.1292,-0.13,-0.1314,-0.1314,-0.1305,-0.1305,-0.1305]}]]